Simultaneous Nadir Overpasses (SNOs) Predictions

Prediction of SNOs between METOP-A and NOAA-19 Satellite Orbit:

Table of predicted SNOs for the next 14.0 days since TLE Epoch: 7/13/2014
Index Date (METOP-A) Time (METOP-A) Lat,Lon (METOP-A) SZA (METOP-A ) Date (NOAA-19) Time (NOAA-19) Lat,Lon (NOAA-19) SZA (NOAA-19 ) Distance(km) Time Diff (sec)
1 07/19/2014 10:01:12 -74.16,-155.32 126.63 07/19/2014 10:00:02 -74.18,-155.33 126.59 3.08 70
2 07/19/2014 10:51:52 74.13, 11.95 53.36 07/19/2014 10:51:00 74.15, 12.00 53.39 2.91 52
3 07/19/2014 11:42:34 -74.14, 179.30 126.63 07/19/2014 11:42:05 -74.16, 179.22 126.61 3.01 29
4 07/19/2014 12:33:14 74.11, -13.43 53.35 07/19/2014 12:33:03 74.13, -13.44 53.37 1.57 11
5 07/19/2014 13:23:57 -74.07, 153.79 126.68 07/19/2014 13:24:07 -74.08, 153.90 126.68 3.54 10
6
